Winfield, KS

11:15 AM CST on December 12, 2019 (GMT -0600)
Strother

Weather History for KWLD - October, 2019

Change the Weather History Date:

Thursday, October 24, 2019

  Actual Average Record
Temperature  
Mean Temperature 47 °F -  
Max Temperature 53 °F 66 °F 84 °F (2012)
Min Temperature 39 °F 46 °F 30 °F (2005)
Degree Days  
Heating Degree Days 18    
Moisture  
Dew Point 38 °F    
Average Humidity 78    
Maximum Humidity 93    
Minimum Humidity 59    
Precipitation  
Precipitation 0.46 in - - ()
Sea Level Pressure  
Sea Level Pressure 30.29 in    
Wind  
Wind Speed 13 mph ()    
Max Wind Speed 21 mph    
Max Gust Speed 36 mph    
Visibility 8.9 miles    
Events Rain    
Averages and records for this station are not official NWS values.
T = Trace of Precipitation, MM = Missing Value Source: Averaged Metar Reports

Daily Weather History Graph

Daily Weather History Graph

Search for Another Location

Airport or City:

Astronomy

Oct. 24, 2019 Rise Set
Actual Time 7:44 AM CDT 6:39 PM CDT
Civil Twilight 7:17 AM CDT 7:06 PM CDT
Nautical Twilight 6:47 AM CDT 7:36 PM CDT
Astronomical Twilight 6:17 AM CDT 8:06 PM CDT
Moon 3:24 AM CDT (10/24) 5:00 PM CDT (10/24)
Length of Visible Light 11h 48m
Length of Day
10h 55m
Waning Crescent, 16% of the Moon is Illuminated
Oct 24
Waning Crescent
Oct 27
New
Nov 4
First Quarter
Nov 12
Full
Nov 19
Last Quarter

Hourly Weather History & Observations

Time (CDT) Temp. Windchill Dew Point Humidity Pressure Visibility Wind Dir Wind Speed Gust Speed Precip Events Conditions
12:54 AM 51.1 °F - 39.0 °F 63% 30.11 in 10.0 mi Variable 3.5 mph - N/A   Mostly Cloudy
1:54 AM 53.1 °F - 39.0 °F 59% 30.12 in 10.0 mi NE 5.8 mph - N/A   Overcast
2:54 AM 51.1 °F - 39.9 °F 66% 30.13 in 10.0 mi North 15.0 mph 19.6 mph N/A   Overcast
3:54 AM 51.1 °F - 39.9 °F 66% 30.17 in 10.0 mi NNE 17.3 mph 25.3 mph N/A   Scattered Clouds
4:54 AM 48.9 °F - 41.0 °F 74% 30.19 in 10.0 mi NNE 18.4 mph 32.2 mph N/A   Overcast
5:54 AM 46.9 °F - 39.0 °F 74% 30.22 in 10.0 mi NNE 18.4 mph 32.2 mph N/A   Overcast
6:35 AM 46.9 °F - 37.9 °F 71% 30.25 in 10.0 mi NNE 15.0 mph 28.8 mph N/A   Mostly Cloudy
6:54 AM 46.0 °F 38.8 °F 37.0 °F 71% 30.26 in 8.0 mi NNE 18.4 mph 35.7 mph N/A   Overcast
7:54 AM 46.0 °F 38.5 °F 37.9 °F 73% 30.28 in 10.0 mi NNE 19.6 mph 32.2 mph N/A   Overcast
8:54 AM 46.0 °F 38.5 °F 39.0 °F 76% 30.32 in 10.0 mi NNE 19.6 mph 33.4 mph N/A   Overcast
9:54 AM 45.0 °F 37.1 °F 37.9 °F 76% 30.35 in 10.0 mi NNE 19.6 mph 31.1 mph N/A   Overcast
10:25 AM 45.0 °F 37.4 °F 37.0 °F 74% 30.35 in 10.0 mi NNE 18.4 mph 24.2 mph N/A   Overcast
10:54 AM 46.0 °F 40.2 °F 37.0 °F 71% 30.36 in 10.0 mi NNE 12.7 mph 29.9 mph N/A   Overcast
11:54 AM 44.1 °F 36.8 °F 37.9 °F 79% 30.35 in 10.0 mi North 16.1 mph - 0.00 in Rain Light Rain
12:01 PM 44.1 °F 36.8 °F 37.9 °F 79% 30.34 in 10.0 mi North 16.1 mph - 0.00 in Rain Light Rain
12:45 PM 43.0 °F 35.4 °F 37.0 °F 80% 30.32 in 10.0 mi NNE 16.1 mph 26.5 mph 0.00 in Rain Light Rain
12:54 PM 44.1 °F 35.7 °F 37.9 °F 79% 30.32 in 8.0 mi NNE 20.7 mph 27.6 mph 0.00 in Rain Light Rain
1:54 PM 44.1 °F 36.5 °F 37.0 °F 76% 30.29 in 10.0 mi NNE 17.3 mph 29.9 mph 0.00 in   Overcast
2:49 PM 44.6 °F 37.4 °F 37.4 °F 76% 30.28 in 10.0 mi NNE 16.1 mph - N/A   Overcast
2:54 PM 45.0 °F 38.5 °F 37.0 °F 74% 30.28 in 10.0 mi NNE 13.8 mph - N/A   Overcast
3:22 PM 45.0 °F 37.9 °F 36.0 °F 71% 30.27 in 10.0 mi NNE 16.1 mph 23.0 mph N/A   Overcast
3:54 PM 44.1 °F 37.7 °F 37.0 °F 76% 30.31 in 6.0 mi NE 12.7 mph 23.0 mph 0.01 in Rain Rain
4:02 PM 44.1 °F 38.6 °F 37.9 °F 79% 30.31 in 5.0 mi NNE 10.4 mph 19.6 mph 0.01 in Rain Rain
4:54 PM 42.1 °F 35.2 °F 37.9 °F 85% 30.34 in 6.0 mi NNE 12.7 mph - 0.07 in Rain Light Rain
5:54 PM 41.0 °F 32.8 °F 37.9 °F 89% 30.30 in 8.0 mi North 16.1 mph 24.2 mph 0.05 in Rain Light Rain
6:54 PM 41.0 °F 32.8 °F 37.9 °F 89% 30.32 in 8.0 mi North 16.1 mph - 0.04 in Rain Light Rain
7:54 PM 41.0 °F 34.3 °F 37.9 °F 89% 30.32 in 7.0 mi NNE 11.5 mph 21.9 mph 0.07 in Rain Rain
8:54 PM 41.0 °F 34.7 °F 39.0 °F 93% 30.34 in 6.0 mi NNE 10.4 mph - 0.08 in Rain Light Rain
9:54 PM 41.0 °F 33.5 °F 39.0 °F 93% 30.35 in 6.0 mi North 13.8 mph - 0.04 in Rain Rain
10:54 PM 41.0 °F 33.9 °F 37.9 °F 89% 30.35 in 10.0 mi NNE 12.7 mph - 0.06 in Rain Light Rain
11:54 PM 39.9 °F 32.5 °F 37.9 °F 93% 30.34 in 7.0 mi NNE 12.7 mph - 0.04 in Rain Light Rain